Flag for Kuwait Weather past 2 weeks in Kuwait City, Kuwait

Now
117 °F

Sunny.


Feels Like: 114 °F
Forecast: 91 / 108 °F
Wind: 13 mph from Southeast

Location: Kuwait International Airport

Current Time: Jul 31, 2015 at 2:56:34 PM

Latest Report: Jul 31, 2015 at 2:00 PM


Visibility: 10 mi

Pressure: 29.45 "Hg

Humidity: 12%

Dew point: 52 °F

Historic Weather in Kuwait City — Graph

°F

Kuwait City temperature yesterday

Maximum temperature yesterday: 117 °F (at 12:00 PM)
Minimum temperature yesterday: 88 °F (at 3:00 AM)
Average temperature yesterday: 103 °F

Past Weeks' High & Low Weather Summary

 TemperatureHumidityPressure
High122 °F (Jul 16, 1:00 PM)67% (Jul 23, 5:00 AM)29.56 "Hg (Jul 23, 5:00 AM)
Low84 °F (Jul 25, 6:00 AM)5% (Jul 16, 2:00 PM)29.33 "Hg (Jul 19, 6:00 PM)
Average105 °F16%29.44 "Hg
* Reported Jul 16 1:00 PM — Jul 31 1:00 PM, Kuwait City, Weather by CustomWeather, © 2015

Note: Actual official high and low records may vary slightly from our data, if they occured in-between our weather recording intervals... More about our weather records

Advertising

Kuwait City weather history for previous 24 hours

 ConditionsComfort  
Time TempWeatherWind HumidityBarometerVisibility
1:00 PM
Fri, Jul 31
118 °FSunny.8 mph8%29.45 "Hg10 mi
12:00 PM117 °FSunny.10 mph10%29.47 "Hg10 mi
11:00 AM115 °FClear.8 mph18%29.47 "Hg4 mi
10:00 AM113 °FSunny.9 mph15%29.47 "Hg10 mi
9:00 AM109 °FClear.9 mph22%29.47 "Hg5 mi
8:00 AM100 °FClear.9 mph47%29.50 "Hg4 mi
7:00 AM102 °FSunny.6 mph21%29.50 "Hg10 mi
6:00 AM95 °FSunny.7 mph30%29.47 "Hg10 mi
5:00 AM95 °FClear.10 mph30%29.47 "Hg4 mi
4:00 AM95 °FClear.9 mph44%29.45 "Hg10 mi
3:00 AM97 °FClear.8 mph44%29.47 "Hg10 mi
2:00 AM99 °FClear.3 mph25%29.45 "Hg10 mi
1:00 AM99 °FClear.8 mph27%29.45 "Hg10 mi
12:00 AM97 °FClear.6 mph32%29.45 "Hg10 mi
11:00 PM
Thu, Jul 30
97 °FClear.5 mph34%29.45 "Hg10 mi
10:00 PM99 °FClear.5 mph35%29.45 "Hg10 mi
9:00 PM100 °FClear.8 mph29%29.45 "Hg10 mi
8:00 PM102 °FClear.7 mph20%29.42 "Hg10 mi
7:00 PM106 °FClear.8 mph25%29.42 "Hg10 mi
6:00 PM108 °FClear.12 mph22%29.42 "Hg4 mi
5:00 PM109 °FClear.14 mph21%29.42 "Hg4 mi
4:30 PM113 °FClear.16 mph13%29.42 "Hg5 mi
3:59 PM113 °FClear.16 mph13%29.42 "Hg5 mi
3:00 PM117 °FSunny.14 mph11%29.42 "Hg10 mi
2:00 PM117 °FClear.9 mph15%29.45 "Hg4 mi
Weather by CustomWeather, © 2015

See weather overviewHow to use our weather pages